Flag for U.S.A. Weather past 2 weeks in Boulder, Colorado, U.S.A.

54 °F

Light rain. Overcast.

Feels Like: 50 °F
Forecast: 46 / 65 °F
Wind: 13 mph from Northwest

Location: Broomfield / Jeffco

Current Time: Oct 3, 2015 at 9:19:03 PM

Latest Report: Oct 3, 2015 at 8:52 PM

Visibility: 10 mi

Pressure: 29.96 "Hg (24.66 "Hg at 1623m altitude)

Humidity: 88%

Dew point: 50 °F

Location of BoulderLocation

Historic Weather in Boulder — Graph


Boulder temperature yesterday

Maximum temperature yesterday: 70 °F (at 1:45 PM)
Minimum temperature yesterday: 55 °F (at 2:16 AM)
Average temperature yesterday: 59 °F

Past Weeks' High & Low Weather Summary

High90 °F (Sep 27, 3:48 PM)100% (Sep 29, 4:36 AM)30.40 "Hg (Sep 29, 4:36 AM)
Low45 °F (Sep 19, 5:56 AM)10% (Sep 21, 3:47 PM)29.86 "Hg (Oct 3, 2:52 PM)
Average64 °F48%30.14 "Hg
* Reported Sep 18 7:50 PM — Oct 3 7:51 PM, Boulder, Weather by CustomWeather, © 2015

Note: Actual official high and low records may vary slightly from our data, if they occured in-between our weather recording intervals... More about our weather records


Boulder weather history for previous 24 hours

Time TempWeatherWind HumidityBarometerVisibility
7:51 PM
Sat, Oct 3
55 °FRain. Overcast.14 mph82%29.93 "Hg10 mi
6:49 PM57 °FMore clouds than sun.13 mph72%29.90 "Hg10 mi
4:45 PM59 °FBroken clouds.12 mph63%29.87 "Hg10 mi
3:45 PM59 °FBroken clouds.9 mph68%29.87 "Hg10 mi
2:52 PM59 °FBroken clouds.6 mph63%29.86 "Hg10 mi
1:50 PM59 °FMostly cloudy.5 mph63%29.87 "Hg10 mi
12:47 PM57 °FMostly cloudy.6 mph67%29.89 "Hg9 mi
11:47 AM55 °FMostly cloudy.5 mph72%29.89 "Hg9 mi
10:47 AM52 °FMostly cloudy.5 mph82%29.91 "Hg7 mi
9:45 AM50 °FCloudy.5 mph82%29.91 "Hg7 mi
8:45 AM48 °FCloudy.6 mph87%29.92 "Hg7 mi
7:48 AM48 °FOvercast.8 mph94%29.92 "Hg8 mi
6:48 AM48 °FOvercast.6 mph94%29.92 "Hg8 mi
5:56 AM48 °FMostly cloudy.3 mph87%29.92 "Hg10 mi
5:36 AM48 °FOvercast.6 mph87%29.91 "Hg7 mi
5:16 AM48 °FMostly cloudy.9 mph87%29.91 "Hg7 mi
4:56 AM48 °FMostly cloudy.7 mph87%29.92 "Hg10 mi
4:36 AM48 °FOvercast.7 mph87%29.92 "Hg10 mi
4:16 AM48 °FLow clouds.6 mph87%29.92 "Hg10 mi
3:56 AM48 °FLow clouds.7 mph87%29.93 "Hg10 mi
2:36 AM50 °FLight rain. Partly cloudy.18 mph82%29.92 "Hg10 mi
2:16 AM50 °FPartly cloudy.12 mph82%29.95 "Hg10 mi
1:56 AM50 °FPassing clouds.15 mph82%29.94 "Hg10 mi
1:36 AM50 °FOvercast.12 mph82%29.94 "Hg10 mi
12:56 AM50 °FOvercast.13 mph88%29.92 "Hg10 mi
Weather by CustomWeather, © 2015

See weather overviewHow to use our weather pages